Flag for U.S.A. Weather past 2 weeks in Huntsville, Alabama, U.S.A.

Now
81 °F

Sunny.


Feels Like: 85 °F
Forecast: 69 / 91 °F
Wind: No wind

Location: Huntsville International / Jones Field

Current Time: Sep 4, 2015 at 9:37:18 AM

Latest Report: Sep 4, 2015 at 8:53 AM


Visibility: 10 mi

Pressure: 30.01 "Hg

Humidity: 72%

Dew point: 71 °F

Location of HuntsvilleLocation

Historic Weather in Huntsville — Graph

°F

Huntsville temperature yesterday

Maximum temperature yesterday: 90 °F (at 11:53 AM)
Minimum temperature yesterday: 73 °F (at 10:53 PM)
Average temperature yesterday: 80 °F

Past Weeks' High & Low Weather Summary

 TemperatureHumidityPressure
High90 °F (Sep 3, 11:53 AM)94% (Sep 3, 11:53 PM)30.14 "Hg (Sep 3, 11:53 PM)
Low59 °F (Aug 25, 4:53 AM)40% (Aug 25, 3:53 PM)29.91 "Hg (Sep 3, 6:53 PM)
Average76 °F74%30.03 "Hg
* Reported Aug 20 7:53 AM — Sep 4 7:53 AM, Huntsville, Weather by CustomWeather, © 2015

Note: Actual official high and low records may vary slightly from our data, if they occured in-between our weather recording intervals... More about our weather records

Advertising

Huntsville weather history for previous 24 hours

 ConditionsComfort  
Time TempWeatherWind HumidityBarometerVisibility
7:53 AM
Fri, Sep 4
75 °FPassing clouds.3 mph88%30.01 "Hg7 mi
6:53 AM71 °FFog.No wind90%30.00 "Hg6 mi
5:53 AM70 °FFog.No wind90%29.98 "Hg4 mi
4:53 AM71 °FFog.No wind93%29.96 "Hg5 mi
3:53 AM72 °FClear.No wind91%29.96 "Hg7 mi
2:53 AM72 °FClear.3 mph91%29.94 "Hg10 mi
1:53 AM73 °FClear.No wind90%29.95 "Hg8 mi
1:03 AM72 °FFog.3 mph93%29.98 "Hg1 mi
12:53 AM73 °FFog.No wind94%29.95 "Hg1 mi
11:53 PM
Thu, Sep 3
73 °FPassing clouds.No wind94%29.94 "Hg8 mi
10:53 PM73 °FPassing clouds.3 mph90%29.94 "Hg8 mi
9:53 PM75 °FPassing clouds.5 mph90%29.95 "Hg10 mi
8:53 PM77 °FPassing clouds.No wind85%29.93 "Hg10 mi
7:53 PM78 °FPassing clouds.No wind82%29.92 "Hg10 mi
6:53 PM82 °FPassing clouds.5 mph74%29.91 "Hg10 mi
5:53 PM85 °FPassing clouds.7 mph68%29.92 "Hg10 mi
4:53 PM82 °FScattered clouds.3 mph74%29.92 "Hg10 mi
3:53 PM81 °FThunderstorms. Scattered clouds.7 mph72%29.93 "Hg10 mi
2:53 PM90 °FScattered clouds.8 mph57%29.93 "Hg10 mi
1:53 PM87 °FScattered clouds.No wind67%29.95 "Hg10 mi
12:53 PM87 °FLight rain. Partly sunny.No wind63%29.97 "Hg10 mi
11:53 AM90 °FBroken clouds.7 mph54%29.99 "Hg10 mi
10:53 AM88 °FPassing clouds.No wind59%30.00 "Hg10 mi
9:53 AM85 °FPartly sunny.No wind68%30.01 "Hg10 mi
Weather by CustomWeather, © 2015

See weather overviewHow to use our weather pages